• In Hungary
  • List of Countries
  • For 7 days
  • Water Temperature
  • Satellite Maps
  • Weather Map
  • News
  • Weather Widgets
  • user-avatar
    Login

    Hourly Weather Bokson

    Today, 12 December, Tuesday

    Time Temperature Precipitation Wind Pressure Humidity
    00:00 -21°C° 0 mm 1 mps 588 mmHg 67%
    01:00 -21°C° 0 mm 1 mps 588 mmHg 70%
    02:00 -22°C° 0 mm 1 mps 587 mmHg 70%
    03:00 -22°C° 0 mm 1 mps 587 mmHg 71%
    04:00 -22°C° 0 mm 1 mps 587 mmHg 72%
    05:00 -22°C° 0 mm 1 mps 587 mmHg 73%
    06:00 -22°C° 0 mm 1 mps 587 mmHg 73%
    07:00 -23°C° 0 mm 1 mps 587 mmHg 70%
    08:00 -22°C° 0 mm 1 mps 587 mmHg 71%
    09:00 -21°C° 0 mm 1 mps 587 mmHg 73%
    10:00 -23°C° 0 mm 2 mps 587 mmHg 75%
    11:00 -18°C° 0 mm 1 mps 587 mmHg 77%
    12:00 -17°C° 0 mm 1 mps 587 mmHg 78%
    13:00 -16°C° 0 mm 1 mps 587 mmHg 80%
    14:00 -17°C° 0 mm 1 mps 586 mmHg 82%
    15:00 -18°C° 0 mm 1 mps 586 mmHg 84%
    16:00 -19°C° 0 mm 1 mps 585 mmHg 86%
    17:00 -19°C° 0 mm 1 mps 585 mmHg 87%
    18:00 -19°C° 0 mm 1 mps 586 mmHg 88%
    19:00 -19°C° 0 mm 1 mps 586 mmHg 89%
    20:00 -19°C° 0.1 mm 1 mps 586 mmHg 90%
    21:00 -19°C° 0.1 mm 1 mps 586 mmHg 91%
    22:00 -19°C° 0.1 mm 1 mps 587 mmHg 93%
    23:00 -19°C° 0.1 mm 1 mps 587 mmHg 93%

    Tomorrow, 13 December, Wednesday

    Time Temperature Precipitation Wind Pressure Humidity
    00:00 -19°C° 0.1 mm 1 mps 587 mmHg 94%
    01:00 -23°C° 0.1 mm 2 mps 588 mmHg 94%
    02:00 -23°C° 0.1 mm 2 mps 588 mmHg 94%
    03:00 -20°C° 0.1 mm 1 mps 588 mmHg 95%
    04:00 -21°C° 0.1 mm 1 mps 588 mmHg 95%
    05:00 -21°C° 0 mm 1 mps 588 mmHg 94%
    06:00 -21°C° 0 mm 1 mps 588 mmHg 94%
    07:00 -22°C° 0 mm 1 mps 589 mmHg 94%
    08:00 -22°C° 0 mm 1 mps 589 mmHg 93%
    09:00 -21°C° 0 mm 1 mps 590 mmHg 92%
    10:00 -21°C° 0 mm 1 mps 590 mmHg 91%
    11:00 -20°C° 0 mm 1 mps 590 mmHg 90%
    12:00 -20°C° 0 mm 1 mps 591 mmHg 89%
    13:00 -19°C° 0 mm 1 mps 591 mmHg 88%
    14:00 -20°C° 0 mm 1 mps 590 mmHg 89%
    15:00 -24°C° 0 mm 2 mps 590 mmHg 91%
    16:00 -25°C° 0 mm 2 mps 590 mmHg 92%
    17:00 -26°C° 0 mm 2 mps 590 mmHg 91%
    18:00 -27°C° 0 mm 2 mps 590 mmHg 91%
    19:00 -27°C° 0 mm 2 mps 590 mmHg 90%
    20:00 -27°C° 0 mm 2 mps 590 mmHg 89%
    21:00 -28°C° 0 mm 2 mps 591 mmHg 89%
    22:00 -28°C° 0 mm 2 mps 591 mmHg 89%
    23:00 -28°C° 0 mm 2 mps 591 mmHg 89%

    Day after tomorrow, 14 December, Thursday

    Time Temperature Precipitation Wind Pressure Humidity
    00:00 -28°C° 0 mm 2 mps 591 mmHg 89%
    01:00 -28°C° 0 mm 2 mps 591 mmHg 89%
    02:00 -28°C° 0 mm 2 mps 591 mmHg 90%
    03:00 -29°C° 0 mm 2 mps 591 mmHg 90%
    04:00 -29°C° 0 mm 2 mps 591 mmHg 90%
    05:00 -29°C° 0 mm 2 mps 591 mmHg 91%
    06:00 -29°C° 0 mm 2 mps 591 mmHg 91%
    07:00 -29°C° 0 mm 2 mps 591 mmHg 91%
    08:00 -29°C° 0 mm 2 mps 591 mmHg 91%
    09:00 -28°C° 0 mm 2 mps 592 mmHg 90%
    10:00 -27°C° 0 mm 2 mps 592 mmHg 90%
    11:00 -27°C° 0 mm 3 mps 593 mmHg 89%
    12:00 -26°C° 0 mm 3 mps 593 mmHg 87%
    13:00 -25°C° 0 mm 3 mps 593 mmHg 86%
    14:00 -26°C° 0 mm 3 mps 592 mmHg 88%
    15:00 -27°C° 0 mm 3 mps 592 mmHg 89%
    16:00 -29°C° 0 mm 3 mps 592 mmHg 91%
    17:00 -29°C° 0 mm 3 mps 592 mmHg 91%
    18:00 -29°C° 0 mm 3 mps 592 mmHg 91%
    19:00 -28°C° 0 mm 2 mps 593 mmHg 92%
    20:00 -27°C° 0.1 mm 2 mps 593 mmHg 92%
    21:00 -27°C° 0.1 mm 2 mps 593 mmHg 92%
    22:00 -27°C° 0.1 mm 2 mps 594 mmHg 91%
    23:00 -27°C° 0 mm 2 mps 594 mmHg 91%

    15 December, Friday

    Time Temperature Precipitation Wind Pressure Humidity
    00:00 -27°C° 0 mm 2 mps 594 mmHg 91%
    01:00 -27°C° 0 mm 2 mps 594 mmHg 91%
    02:00 -29°C° 0 mm 3 mps 594 mmHg 91%
    03:00 -30°C° 0 mm 3 mps 594 mmHg 91%
    04:00 -30°C° 0 mm 3 mps 594 mmHg 91%
    05:00 -30°C° 0 mm 3 mps 594 mmHg 91%
    06:00 -30°C° 0 mm 3 mps 594 mmHg 90%
    07:00 -30°C° 0 mm 3 mps 594 mmHg 90%
    08:00 -30°C° 0 mm 3 mps 594 mmHg 90%
    09:00 -29°C° 0 mm 3 mps 594 mmHg 89%
    10:00 -29°C° 0 mm 3 mps 595 mmHg 88%
    11:00 -26°C° 0 mm 3 mps 595 mmHg 88%
    12:00 -25°C° 0 mm 3 mps 595 mmHg 88%
    13:00 -24°C° 0 mm 3 mps 595 mmHg 87%
    14:00 -25°C° 0 mm 3 mps 595 mmHg 88%
    15:00 -26°C° 0 mm 3 mps 594 mmHg 89%
    16:00 -27°C° 0 mm 3 mps 594 mmHg 90%
    17:00 -27°C° 0 mm 3 mps 594 mmHg 89%
    18:00 -27°C° 0 mm 3 mps 594 mmHg 89%
    19:00 -27°C° 0 mm 3 mps 594 mmHg 89%
    20:00 -27°C° 0 mm 3 mps 594 mmHg 89%
    21:00 -27°C° 0 mm 3 mps 594 mmHg 89%
    22:00 -27°C° 0 mm 3 mps 594 mmHg 89%
    23:00 -26°C° 0.1 mm 3 mps 594 mmHg 89%

    16 December, Saturday

    Time Temperature Precipitation Wind Pressure Humidity
    00:00 -26°C° 0.1 mm 3 mps 594 mmHg 89%
    01:00 -25°C° 0.1 mm 3 mps 594 mmHg 89%
    02:00 -25°C° 0 mm 3 mps 594 mmHg 89%
    03:00 -25°C° 0 mm 3 mps 593 mmHg 89%
    04:00 -25°C° 0 mm 3 mps 593 mmHg 90%
    05:00 -25°C° 0 mm 3 mps 593 mmHg 90%
    06:00 -25°C° 0 mm 3 mps 593 mmHg 90%
    07:00 -25°C° 0 mm 3 mps 593 mmHg 90%
    08:00 -25°C° 0 mm 3 mps 593 mmHg 89%
    09:00 -24°C° 0 mm 3 mps 593 mmHg 89%
    10:00 -23°C° 0 mm 3 mps 593 mmHg 89%
    11:00 -22°C° 0 mm 3 mps 593 mmHg 87%
    12:00 -21°C° 0 mm 3 mps 593 mmHg 86%
    13:00 -19°C° 0 mm 3 mps 593 mmHg 84%
    14:00 -19°C° 0 mm 3 mps 592 mmHg 86%
    15:00 -21°C° 0 mm 3 mps 592 mmHg 87%
    16:00 -22°C° 0 mm 3 mps 591 mmHg 89%
    17:00 -22°C° 0.1 mm 3 mps 591 mmHg 89%
    18:00 -22°C° 0.1 mm 3 mps 591 mmHg 89%
    19:00 -22°C° 0.1 mm 3 mps 591 mmHg 90%
    20:00 -22°C° 0.1 mm 3 mps 591 mmHg 90%
    21:00 -22°C° 0.1 mm 3 mps 591 mmHg 89%
    22:00 -22°C° 0.1 mm 3 mps 591 mmHg 89%
    23:00 -22°C° 0.1 mm 3 mps 591 mmHg 89%

    17 December, Sunday

    Time Temperature Precipitation Wind Pressure Humidity
    00:00 -22°C° 0.1 mm 3 mps 591 mmHg 89%
    01:00 -22°C° 0.1 mm 3 mps 591 mmHg 89%
    02:00 -23°C° 0.1 mm 4 mps 591 mmHg 89%
    03:00 -22°C° 0.1 mm 4 mps 591 mmHg 89%
    04:00 -22°C° 0.1 mm 4 mps 591 mmHg 89%
    05:00 -22°C° 0.1 mm 4 mps 591 mmHg 90%
    06:00 -21°C° 0.1 mm 3 mps 591 mmHg 90%
    07:00 -22°C° 0.1 mm 3 mps 591 mmHg 90%
    08:00 -21°C° 0.1 mm 3 mps 591 mmHg 90%
    09:00 -21°C° 0.1 mm 3 mps 591 mmHg 90%
    10:00 -21°C° 0.1 mm 3 mps 591 mmHg 90%
    11:00 -19°C° 0 mm 3 mps 591 mmHg 88%
    12:00 -19°C° 0 mm 4 mps 591 mmHg 86%
    13:00 -18°C° 0 mm 4 mps 591 mmHg 84%
    14:00 -19°C° 0 mm 4 mps 591 mmHg 85%
    15:00 -20°C° 0 mm 4 mps 591 mmHg 86%
    16:00 -22°C° 0 mm 4 mps 590 mmHg 87%
    17:00 -22°C° 0 mm 4 mps 590 mmHg 87%
    18:00 -22°C° 0 mm 4 mps 591 mmHg 87%
    19:00 -22°C° 0 mm 4 mps 591 mmHg 88%
    20:00 -20°C° 0.1 mm 4 mps 591 mmHg 88%
    21:00 -20°C° 0.1 mm 4 mps 591 mmHg 89%
    22:00 -21°C° 0.1 mm 5 mps 590 mmHg 89%
    23:00 -20°C° 0.1 mm 4 mps 590 mmHg 90%
    Show more